Location: Mountain Grove
(34.0887°N, 86.6172°W)
Time: 14:18:43
(UTC+00:00)

Cosmos 1709 Rocket - Pass Details

Date: 14 July 2020
Orbit: 948 x 1002 km, 82.9° (Epoch: 12 August)

Event Time Altitude Azimuth Distance (km) Brightness Sun altitude
Rises 01:24:45 0° 166° (SSE) 3,675 6.6 -5.5°
Reaches altitude 10° 01:27:20 10° 160° (SSE) 2,738 5.9 -5.9°
Maximum altitude 01:33:16 45° 90° (E) 1,326 4.4 -7.0°
Drops below altitude 10° 01:39:17 10° 20° (NNE) 2,775 6.6 -8.0°
Sets 01:41:55 0° 14° (NNE) 3,731 7.3 -8.5°
